| time (UTC) | temp F | wind direction | speed MPH | gust MPH | rain 1hr in | rain 24hr in | rain mn in | humidity % | barometer mb |
| 20260903161538 | 65 | 0.0 | 1.0 | 0.00 | 0.13 | 0.13 | 1019.5 | ||
| 20260903160535 | 65 | 0.0 | 1.0 | 0.00 | 0.13 | 0.13 | 1019.5 | ||
| 20260903155631 | 65 | 0.0 | 2.0 | 0.00 | 0.13 | 0.13 | 1019.5 | ||
| 20260903154557 | 65 | 45 | 0.0 | 2.0 | 0.00 | 0.13 | 0.13 | 1019.6 | |
| 20260903153553 | 65 | 0.0 | 1.0 | 0.00 | 0.13 | 0.13 | 1019.7 | ||
| 20260903152549 | 66 | 0.0 | 3.0 | 0.00 | 0.13 | 0.13 | 1019.7 | ||
| 20260903151546 | 66 | 0.0 | 1.0 | 0.00 | 0.13 | 0.13 | 1019.8 | ||
| 20260903150542 | 65 | 0.0 | 0.0 | 0.00 | 0.13 | 0.13 | 1019.7 | ||
| 20260903145538 | 65 | 0.0 | 0.0 | 0.00 | 0.13 | 0.13 | 1019.6 | ||
| 20260903144534 | 65 | 0.0 | 0.0 | 0.00 | 0.13 | 0.13 | 1019.6 | ||
| 20260903143530 | 64 | 180 | 0.0 | 2.0 | 0.01 | 0.13 | 0.13 | 1019.7 | |
| 20260903142526 | 64 | 0.0 | 0.0 | 0.02 | 0.13 | 0.13 | 1019.6 | ||
| 20260903141522 | 64 | 0.0 | 1.0 | 0.04 | 0.13 | 0.13 | 1019.7 | ||
| 20260903140519 | 64 | 0.0 | 0.0 | 0.06 | 0.13 | 0.13 | 1019.8 | ||
| 20260903135615 | 64 | 0.0 | 2.0 | 0.07 | 0.13 | 0.13 | 1020.0 | ||
| 20260903134612 | 63 | 0.0 | 1.0 | 0.09 | 0.13 | 0.13 | 1020.3 | ||
| 20260903133608 | 63 | 0.0 | 1.0 | 0.09 | 0.12 | 0.12 | 1020.5 | ||
| 20260903132604 | 64 | 0.0 | 0.0 | 0.09 | 0.11 | 0.11 | 1020.7 | ||
| 20260903131600 | 64 | 0.0 | 1.0 | 0.08 | 0.09 | 0.09 | 1020.8 | ||
| 20260903130557 | 65 | 225 | 1.0 | 3.0 | 0.06 | 0.07 | 0.07 | 1020.6 | |
| 20260903125552 | 66 | 45 | 1.0 | 4.0 | 0.05 | 0.06 | 0.06 | 1020.5 | |
| 20260903124549 | 68 | 240 | 0.0 | 4.0 | 0.04 | 0.04 | 0.04 | 1020.6 | |
| 20260903123545 | 68 | 315 | 0.0 | 3.0 | 0.02 | 0.02 | 0.02 | 1020.4 | |
| 20260903122541 | 69 | 0.0 | 1.0 | 0.01 | 0.01 | 0.01 | 1020.4 | ||
| 20260903121537 | 70 | 0.0 | 2.0 | 0.01 | 0.01 | 0.01 | 1020.2 | ||
| 20260903120534 | 69 | 0.0 | 0.0 | 0.01 | 0.01 | 0.01 | 1020.2 | ||
| 20260903115530 | 69 | 0.0 | 3.0 | 0.01 | 0.01 | 0.01 | 1020.2 | ||
| 20260903114527 | 71 | 136 | 1.0 | 4.0 | 0.00 | 0.00 | 0.00 | 1020.2 | |
| 20260903113523 | 73 | 222 | 3.0 | 8.0 | 0.00 | 0.00 | 0.00 | 1020.1 | |
| 20260903112518 | 73 | 263 | 2.0 | 9.0 | 0.00 | 0.00 | 0.00 | 1020.5 | |
| 20260903111615 | 74 | 237 | 4.0 | 11.0 | 0.00 | 0.00 | 0.00 | 1020.4 | |
| 20260903110612 | 74 | 225 | 4.0 | 8.0 | 0.00 | 0.00 | 0.00 | 1020.5 | |
| 20260903105608 | 75 | 279 | 3.0 | 9.0 | 0.00 | 0.00 | 0.00 | 1020.6 | |
| 20260903104605 | 75 | 265 | 4.0 | 11.0 | 0.00 | 0.00 | 0.00 | 1020.7 | |
| 20260903103600 | 74 | 249 | 4.0 | 9.0 | 0.00 | 0.00 | 0.00 | 1020.7 | |
| 20260903102556 | 74 | 255 | 4.0 | 11.0 | 0.00 | 0.00 | 0.00 | 1020.8 | |
| 20260903101553 | 73 | 196 | 4.0 | 10.0 | 0.00 | 0.00 | 0.00 | 1021.0 | |
| 20260903100549 | 72 | 225 | 4.0 | 8.0 | 0.00 | 0.00 | 0.00 | 1021.0 | |
| 20260903095545 | 72 | 241 | 3.0 | 9.0 | 0.00 | 0.00 | 0.00 | 1021.1 | |
| 20260903094541 | 72 | 270 | 1.0 | 5.0 | 0.00 | 0.00 | 0.00 | 1021.1 | |
| 20260903093538 | 70 | 228 | 1.0 | 6.0 | 0.00 | 0.00 | 0.00 | 1021.3 | |
| 20260903092534 | 72 | 196 | 2.0 | 6.0 | 0.00 | 0.00 | 0.00 | 1021.4 | |
| 20260903091530 | 72 | 0.0 | 2.0 | 0.00 | 0.00 | 0.00 | 1021.3 | ||
| 20260903090526 | 70 | 0.0 | 0.0 | 0.00 | 0.00 | 0.00 | 1021.0 | ||
| 20260903085522 | 71 | 256 | 0.0 | 4.0 | 0.00 | 0.00 | 0.00 | 1021.1 | |
| 20260903084519 | 70 | 200 | 2.0 | 5.0 | 0.00 | 0.00 | 0.00 | 1021.4 | |
| 20260903083615 | 70 | 230 | 2.0 | 6.0 | 0.00 | 0.00 | 0.00 | 1021.4 | |
| 20260903082611 | 71 | 266 | 2.0 | 6.0 | 0.00 | 0.00 | 0.00 | 1021.3 | |
| 20260903081607 | 69 | 180 | 0.0 | 3.0 | 0.00 | 0.00 | 0.00 | 1021.3 | |
| 20260903080604 | 67 | 0.0 | 0.0 | 0.00 | 0.00 | 0.00 | 1021.3 | ||
| 20260903075601 | 65 | 180 | 1.0 | 4.0 | 0.00 | 0.00 | 0.00 | 1020.8 | |
| 20260903074557 | 66 | 170 | 1.0 | 5.0 | 0.00 | 0.00 | 0.00 | 1020.9 | |
| 20260903073553 | 65 | 164 | 2.0 | 6.0 | 0.00 | 0.00 | 0.00 | 1020.8 | |
| 20260903072549 | 65 | 172 | 1.0 | 4.0 | 0.00 | 0.00 | 0.00 | 1020.9 | |
| 20260903071545 | 65 | 175 | 1.0 | 5.0 | 0.00 | 0.00 | 0.00 | 1021.2 | |
| 20260903070541 | 66 | 180 | 2.0 | 4.0 | 0.00 | 0.00 | 0.00 | 1021.4 | |
| 20260903065538 | 65 | 0.0 | 2.0 | 0.00 | 0.00 | 0.00 | 1021.5 | ||
| 20260903064534 | 64 | 0.0 | 0.0 | 0.00 | 0.00 | 0.00 | 1021.5 | ||
| 20260903063601 | 61 | 0.0 | 0.0 | 0.00 | 0.00 | 0.00 | 1021.6 | ||
| 20260903062556 | 60 | 180 | 0.0 | 2.0 | 0.00 | 0.00 | 0.00 | 1021.6 | |
| 20260903061553 | 56 | 0.0 | 0.0 | 0.00 | 0.00 | 0.00 | 1021.6 | ||
| 20260903060550 | 53 | 0.0 | 2.0 | 0.00 | 0.00 | 0.00 | 1021.7 | ||
| 20260903055545 | 52 | 0.0 | 0.0 | 0.00 | 0.00 | 0.00 | 1021.7 | ||
| 20260903054541 | 51 | 0.0 | 0.0 | 0.00 | 0.00 | 0.00 | 1021.8 | ||
| 20260903053538 | 51 | 0.0 | 0.0 | 0.00 | 0.00 | 0.00 | 1021.7 | ||
| 20260903052534 | 50 | 0.0 | 0.0 | 0.00 | 0.00 | 0.00 | 1021.5 | ||
| 20260903051601 | 50 | 0.0 | 0.0 | 0.00 | 0.00 | 0.00 | 1021.3 | ||
| 20260903050557 | 49 | 0.0 | 0.0 | 0.00 | 0.00 | 0.00 | 1021.3 | ||
| 20260903045552 | 49 | 0.0 | 0.0 | 0.00 | 0.00 | 0.00 | 1021.1 | ||
| 20260903044549 | 49 | 0.0 | 0.0 | 0.00 | 0.00 | 0.00 | 1021.0 | ||
| 20260903043545 | 49 | 0.0 | 0.0 | 0.00 | 0.00 | 0.00 | 1021.0 | ||
| 20260903042541 | 49 | 0.0 | 0.0 | 0.00 | 0.00 | 0.00 | 1021.1 | ||
| 20260903041536 | 49 | 0.0 | 0.0 | 0.00 | 0.00 | 0.00 | 1021.2 | ||
| 20260903040533 | 49 | 0.0 | 0.0 | 0.00 | 0.00 | 0.00 | 1021.1 | ||
| 20260903035559 | 50 | 0.0 | 0.0 | 0.00 | 0.00 | 0.00 | 1021.2 | ||
| 20260903034555 | 50 | 0.0 | 0.0 | 0.00 | 0.00 | 0.00 | 1021.3 | ||
| 20260903033551 | 50 | 0.0 | 0.0 | 0.00 | 0.00 | 0.00 | 1021.2 | ||
| 20260903032548 | 51 | 0.0 | 0.0 | 0.00 | 0.00 | 0.00 | 1021.3 | ||
| 20260903031544 | 51 | 0.0 | 0.0 | 0.00 | 0.00 | 0.00 | 1021.3 | ||
| 20260903030541 | 51 | 0.0 | 0.0 | 0.00 | 0.00 | 0.00 | 1021.1 | ||
| 20260903025537 | 51 | 0.0 | 0.0 | 0.00 | 0.00 | 0.00 | 1021.1 | ||
| 20260903024533 | 52 | 0.0 | 0.0 | 0.00 | 0.00 | 0.00 | 1021.1 | ||
| 20260903023529 | 52 | 0.0 | 0.0 | 0.00 | 0.00 | 0.00 | 1021.1 | ||
| 20260903022526 | 52 | 0.0 | 0.0 | 0.00 | 0.00 | 0.00 | 1021.1 | ||
| 20260903021521 | 53 | 0.0 | 0.0 | 0.00 | 0.00 | 0.00 | 1021.2 | ||
| 20260903020517 | 53 | 0.0 | 0.0 | 0.00 | 0.00 | 0.00 | 1021.3 | ||
| 20260903015615 | 53 | 0.0 | 0.0 | 0.00 | 0.00 | 0.00 | 1021.3 | ||
| 20260903014610 | 53 | 0.0 | 0.0 | 0.00 | 0.00 | 0.00 | 1021.2 | ||
| 20260903013606 | 53 | 0.0 | 0.0 | 0.00 | 0.00 | 0.00 | 1021.2 | ||
| 20260903012603 | 53 | 0.0 | 0.0 | 0.00 | 0.00 | 0.00 | 1021.2 | ||
| 20260903011559 | 53 | 0.0 | 0.0 | 0.00 | 0.00 | 0.00 | 1021.3 | ||
| 20260903010555 | 54 | 0.0 | 0.0 | 0.00 | 0.00 | 0.00 | 1021.3 | ||
| 20260903005551 | 54 | 0.0 | 0.0 | 0.00 | 0.00 | 0.00 | 1021.3 | ||
| 20260903004547 | 54 | 0.0 | 0.0 | 0.00 | 0.00 | 0.00 | 1021.2 | ||
| 20260903003543 | 55 | 0.0 | 0.0 | 0.00 | 0.00 | 0.00 | 1021.1 | ||
| 20260903002539 | 55 | 0.0 | 0.0 | 0.00 | 0.00 | 0.00 | 1021.2 | ||
| 20260903001536 | 56 | 0.0 | 0.0 | 0.00 | 0.00 | 0.00 | 1021.2 | ||
| 20260903000532 | 56 | 0.0 | 0.0 | 0.00 | 0.00 | 0.00 | 1021.1 | ||
| 20260902235529 | 57 | 0.0 | 0.0 | 0.00 | 0.00 | 0.00 | 1021.1 | ||
| 20260902234524 | 57 | 0.0 | 0.0 | 0.00 | 0.00 | 0.00 | 1021.2 | ||
| 20260902233521 | 58 | 0.0 | 0.0 | 0.00 | 0.00 | 0.00 | 1021.2 | ||
| 20260902232517 | 58 | 0.0 | 0.0 | 0.00 | 0.00 | 0.00 | 1021.2 | ||
| 20260902231614 | 58 | 0.0 | 0.0 | 0.00 | 0.00 | 0.00 | 1021.2 | ||
| 20260902230610 | 58 | 0.0 | 0.0 | 0.00 | 0.00 | 0.00 | 1021.2 | ||
| 20260902225607 | 59 | 0.0 | 0.0 | 0.00 | 0.00 | 0.00 | 1021.2 | ||
| 20260902224603 | 59 | 0.0 | 0.0 | 0.00 | 0.00 | 0.00 | 1021.2 | ||
| 20260902223559 | 59 | 0.0 | 0.0 | 0.00 | 0.00 | 0.00 | 1021.1 | ||
| 20260902222554 | 59 | 0.0 | 0.0 | 0.00 | 0.00 | 0.00 | 1021.1 | ||
| 20260902221552 | 59 | 0.0 | 0.0 | 0.00 | 0.00 | 0.00 | 1021.0 | ||
| 20260902220547 | 59 | 0.0 | 0.0 | 0.00 | 0.00 | 0.00 | 1021.1 | ||
| 20260902215543 | 59 | 0.0 | 0.0 | 0.00 | 0.00 | 0.00 | 1021.0 | ||
| 20260902214539 | 59 | 0.0 | 0.0 | 0.00 | 0.00 | 0.00 | 1021.0 | ||
| 20260902213536 | 59 | 0.0 | 0.0 | 0.00 | 0.00 | 0.00 | 1021.0 | ||
| 20260902212532 | 59 | 0.0 | 0.0 | 0.00 | 0.00 | 0.00 | 1021.0 | ||
| 20260902211558 | 60 | 0.0 | 0.0 | 0.00 | 0.00 | 0.00 | 1021.0 | ||
| 20260902210554 | 60 | 0.0 | 0.0 | 0.00 | 0.00 | 0.00 | 1020.9 | ||
| 20260902205550 | 60 | 0.0 | 0.0 | 0.00 | 0.00 | 0.00 | 1020.9 | ||
| 20260902204546 | 60 | 0.0 | 0.0 | 0.00 | 0.00 | 0.00 | 1020.9 | ||
| 20260902203543 | 60 | 0.0 | 0.0 | 0.00 | 0.00 | 0.00 | 1020.9 | ||
| 20260902202539 | 61 | 0.0 | 0.0 | 0.00 | 0.00 | 0.00 | 1020.9 | ||
| 20260902201535 | 61 | 0.0 | 2.0 | 0.00 | 0.00 | 0.00 | 1020.8 | ||
| 20260902200532 | 61 | 0.0 | 0.0 | 0.00 | 0.00 | 0.00 | 1020.7 | ||
| 20260902195528 | 62 | 0.0 | 0.0 | 0.00 | 0.00 | 0.00 | 1020.7 | ||
| 20260902194524 | 62 | 0.0 | 0.0 | 0.00 | 0.00 | 0.00 | 1020.7 | ||
| 20260902193520 | 63 | 0.0 | 0.0 | 0.00 | 0.00 | 0.00 | 1020.6 | ||
| 20260902192517 | 63 | 0.0 | 0.0 | 0.00 | 0.00 | 0.00 | 1020.5 | ||
| 20260902191613 | 64 | 0.0 | 0.0 | 0.00 | 0.00 | 0.00 | 1020.4 | ||
| 20260902190609 | 65 | 0.0 | 0.0 | 0.00 | 0.00 | 0.00 | 1020.3 | ||
| 20260902185605 | 65 | 0.0 | 0.0 | 0.00 | 0.00 | 0.00 | 1020.3 | ||
| 20260902184601 | 66 | 0.0 | 0.0 | 0.00 | 0.00 | 0.00 | 1020.2 | ||
| 20260902183558 | 67 | 0.0 | 0.0 | 0.00 | 0.00 | 0.00 | 1020.1 | ||
| 20260902182554 | 67 | 0.0 | 0.0 | 0.00 | 0.00 | 0.00 | 1020.2 | ||
| 20260902181550 | 68 | 0.0 | 0.0 | 0.00 | 0.00 | 0.00 | 1020.0 | ||
| 20260902180546 | 69 | 0.0 | 2.0 | 0.00 | 0.00 | 0.00 | 1019.8 | ||
| 20260902175542 | 70 | 0.0 | 2.0 | 0.00 | 0.00 | 0.00 | 1019.7 | ||
| 20260902174538 | 70 | 0.0 | 4.0 | 0.00 | 0.00 | 0.00 | 1019.6 | ||
| 20260902173535 | 71 | 225 | 0.0 | 3.0 | 0.00 | 0.00 | 0.00 | 1019.5 | |
| 20260902172531 | 72 | 0 | 0.0 | 4.0 | 0.00 | 0.00 | 0.00 | 1019.6 | |
| 20260902171528 | 73 | 0 | 0.0 | 3.0 | 0.00 | 0.00 | 0.00 | 1019.4 | |
| 20260902170524 | 76 | 225 | 3.0 | 6.0 | 0.00 | 0.00 | 0.00 | 1019.4 | |
| 20260902165520 | 76 | 148 | 1.0 | 4.0 | 0.00 | 0.00 | 0.00 | 1019.4 | |
| 20260902164516 | 77 | 190 | 2.0 | 8.0 | 0.00 | 0.00 | 0.00 | 1019.4 | |
| 20260902163613 | 78 | 278 | 1.0 | 5.0 | 0.00 | 0.00 | 0.00 | 1019.5 | |
| 20260902162609 | 78 | 13 | 2.0 | 6.0 | 0.00 | 0.00 | 0.00 | 1019.4 |